Portada
METAR-TAF:

METAR-TAF

Aeroports :

Weipa, Austràlia

latitud: 12-40-43S, longitud: 141-55-31E, altitud: 19 m

Observació

L'informe es va fer fa 56 minuts, a les 04:00 UTC
Vent 7 kt del Nord-Oest
Temperatura 29°C
Humitat 79%
Pressió 1004 hPa
Visibilitat 10 km o més
Núvols disperses a una alçada de 2900 ft

METAR: YBWP 200400Z AUTO 32007KT 9999 // SCT029 29/25 Q1004

Hora: 14:56 (04:56 UTC)


TAF: manca

Observacions i pronòstics meteorològics de més de 4000 aeroports (METAR i TAF).

Les estacions disponibles són els punts grocs i vermells al mapa.

Posi el ratolí al punt desitjat per veure el nom de l'estació.

Feu clic per veure les observacions i els pronòstics meteorològics.

Per canviar el mapa: feu clic els botons verds amb una creu de color negre per apropar; al botó verd amb un guió per allunyar la imatge; o en les fletxes verdes per a mapes adjacents.


METAR-TAF: